Location: Frydek-Mistek
(49.6830°N, 18.3330°E)
Time: 05:23:35
(UTC+02:00)

ISS - Pass Details

Date: 18 May 2021
Orbit: 417 x 422 km, 51.6° (Epoch: 13 June)

Event Time Altitude Azimuth Distance (km) Brightness Sun altitude
Rises 21:16:47 0° 236° (WSW) 2,355 0.2 -6.9°
Reaches altitude 10° 21:18:54 10° 232° (SW) 1,495 -0.8 -7.2°
Maximum altitude 21:22:11 55° 154° (SSE) 509 -3.7 -7.6°
Drops below altitude 10° 21:25:30 10° 76° (ENE) 1,504 -1.2 -8.0°
Sets 21:27:37 0° 72° (ENE) 2,372 -0.2 -8.2°
